Regional Weather Roundup
Issued by NWS

Home | Current Version | Previous Version | Graphics & Text | Print | Product List | Glossary On
Versions: 1 2 3 4 5 6 7 8 9 10 11 12 13 14 15 16 17 18 19 20 21 22 23 24 25 26 27 28 29 30 31 32 33 34 35 36 37 38 39 40 41 42 43 44 45 46 47 48 49 50
000
ASUS43 KIND 251309
RWRIN

WEATHER ROUNDUP FOR INDIANA
NATIONAL WEATHER SERVICE INDIANAPOLIS IN
900 AM EDT SAT OCT 25 2014

NOTE: "FAIR" INDICATES FEW OR NO CLOUDS BELOW 12,000 FEET WITH NO
SIGNIFICANT WEATHER AND/OR OBSTRUCTIONS TO VISIBILITY.

* - STATION DOES NOT REPORT WEATHER SUCH AS PRECIPITATION OR FOG.

+ - STATION NOT QUALITY CONTROLLED BY THE NATIONAL WEATHER SERVICE.
    USE DATA WITH CAUTION...ESPECIALLY DEWPOINT AND RELATIVE
    HUMIDITY OBSERVATIONS.

INZ001>003-010>013-019-020-251400-
NORTHWEST INDIANA

CITY           SKY/WX    TMP DP  RH WIND       PRES   REMARKS
GARY /AIRPORT/ MOCLDY    57  54  88 W6        29.93R FOG
KNOX *+        PTCLDY    49  47  93 W6        29.92R
LA PORTE +     CLOUDY    54  54 100 W3        29.93R FOG
MICHIGAN CITY+ CLOUDY    54  54 100 SW6       29.92S FOG
MONTICELLO +   CLEAR     51  50  96 SW5       29.94R
RENSSELAER +   CLEAR     48  48 100 SW6       29.94S FOG
VALPARAISO     CLOUDY    53  53 100 W8        29.94R FOG

$$

LMZ046-743>745-251400-
SOUTHERN LAKE MICHIGAN

STATION/POSITION TIME  TEMP WIND        PRES
                       AIR  DIR/SP/G
                 (UTC) (F)  (DEG/KT/KT) (MB)
MICHIGAN CITY    1300   56  240/ 13/ 15   N/A

$$

INZ004-005-014>016-021>024-251400-
NORTH CENTRAL INDIANA

CITY           SKY/WX    TMP DP  RH WIND       PRES   REMARKS
ELKHART        MOCLDY    54  50  87 W6        29.91R FOG
GOSHEN         PTCLDY    52  50  93 SW7       29.91R FOG
LOGANSPORT +   CLEAR     50  48  93 SW8       29.95R FOG
PERU/GRISSOM   CLEAR     53  53 100 SW8       29.94R
ROCHESTER +    PTCLDY    54  54 100 W5        29.93S FOG
SOUTH BEND     FAIR      51  49  92 W6        29.92R FOG
WARSAW +       PTCLDY    52  52 100 SW6       29.92R FOG

$$

INZ006>009-017-018-025>027-251400-
NORTHEAST INDIANA

CITY           SKY/WX    TMP DP  RH WIND       PRES   REMARKS
ANGOLA *+      CLOUDY    55  48  76 W8        29.89R
AUBURN +       PTCLDY    54  50  87 SW7       29.91S FOG
FORT WAYNE     MOCLDY    54  51  90 SW7       29.93S FOG
HUNTINGTON +   PTCLDY   N/A N/A N/A SW6       29.92F

$$

INZ028-029-035-036-043>045-051>053-251400-
WEST CENTRAL INDIANA

CITY           SKY/WX    TMP DP  RH WIND       PRES   REMARKS
GREENCASTLE +  CLOUDY    55  52  88 CALM      30.00R
LAFAYETTE      PTCLDY    50  50 100 CALM      29.96R
TERRE HAUTE    MOCLDY    52  50  93 CALM      30.00R

$$

INZ030>032-037>040-046>048-054>057-064-065-251400-
CENTRAL INDIANA

CITY           SKY/WX    TMP DP  RH WIND       PRES   REMARKS
ANDERSON       MOCLDY    55  50  82 SW10      29.98
CP ATTERBURY + CLOUDY    57  52  82 SW6       29.99S
FRANKFORT +    CLEAR    N/A N/A N/A SW5       29.98R FOG
INDIANAPOLIS   CLOUDY    55  51  86 SW9       29.97S
-EAGLE CREEK   CLOUDY    56  51  84 SW5       29.97S
KOKOMO *+      CLEAR     54  48  82 W8        29.96R
MARION +       PTCLDY    54  50  87 SW8       29.95F FOG
MT COMFORT *+  CLOUDY    54  54 100 SW3       29.99R
SHELBYVILLE    CLOUDY    55  51  86 S6        29.98R
ZIONSVILLE +   MOCLDY    56  50  82 SW6       29.97S

$$

INZ033-034-041-042-049-050-058-059-251400-
EAST CENTRAL INDIANA

CITY           SKY/WX    TMP DP  RH WIND       PRES   REMARKS
MUNCIE         CLOUDY    57  51  80 SW10      29.95S

$$

INZ060-061-067>069-081>083-085>088-251400-
SOUTHWEST INDIANA

CITY           SKY/WX    TMP DP  RH WIND       PRES   REMARKS
EVANSVILLE     CLOUDY    59  54  83 SW6       30.03R
HUNTINGBURG *+ MOCLDY    57  52  82 W7        30.03R
WASHINGTON +   CLOUDY    59  56  89 SW6       30.00R

$$

INZ062-063-066-070>080-084-089>092-251400-
SOUTH CENTRAL AND SOUTHEAST INDIANA

CITY           SKY/WX    TMP DP  RH WIND       PRES   REMARKS
BLOOMINGTON    PTCLDY    57  54  89 W5        29.99S FOG

$$




USA.gov is the U.S. government's official web portal to all federal, state and local government web resources and services.